This is the latest recevied weather packets stored in our database for station/object EB2EMZ-14. If no packets are shown the sender has not sent any weather packets the latest 10 day(s).
| Time | Temp. | Humidity | Pressure | Rain* | Wind** | Luminosity | Snow |
|---|---|---|---|---|---|---|---|
| 1777905307 | 16.11° C | 70% | 1011.9 hPa | 0 mm | - | 0 W/m² | - |
| 1777905006 | 15.56° C | 70% | 1012.1 hPa | 0 mm | - | 0 W/m² | - |
| 1777904707 | 15.56° C | 71% | 1012.2 hPa | 0 mm | - | 0 W/m² | - |
| 1777904410 | 15.56° C | 71% | 1012.2 hPa | 0 mm | - | 0 W/m² | - |
| 1777904107 | 15° C | 71% | 1012.2 hPa | 0 mm | - | 0 W/m² | - |
| 1777903809 | 15° C | 70% | 1012.2 hPa | 0 mm | - | 0 W/m² | - |
| 1777903506 | 15° C | 69% | 1012.2 hPa | 0 mm | - | 0 W/m² | - |
| 1777903207 | 15.56° C | 68% | 1012.3 hPa | 0 mm | - | 0 W/m² | - |
| 1777902907 | 15.56° C | 68% | 1012.2 hPa | 0 mm | - | 0 W/m² | - |
| 1777902607 | 16.11° C | 67% | 1012.3 hPa | 0 mm | - | 0 W/m² | - |
| 1777902308 | 16.67° C | 67% | 1012.3 hPa | 0 mm | - | 0 W/m² | - |
| 1777902007 | 16.11° C | 68% | 1012.3 hPa | 0 mm | - | 0 W/m² | - |
| 1777901706 | 16.11° C | 68% | 1012.3 hPa | 0 mm | - | 0 W/m² | - |
| 1777901407 | 16.11° C | 67% | 1012.4 hPa | 0 mm | - | 0 W/m² | - |
| 1777901107 | 16.11° C | 70% | 1012.2 hPa | 0 mm | - | 0 W/m² | - |
| 1777900807 | 16.11° C | 69% | 1012.2 hPa | 0 mm | - | 0 W/m² | - |
| 1777900507 | 16.11° C | 70% | 1012.2 hPa | 0 mm | - | 0 W/m² | - |
| 1777900207 | 15.56° C | 70% | 1012.2 hPa | 0 mm | - | 0 W/m² | - |
| 1777899907 | 15.56° C | 69% | 1012.1 hPa | 0 mm | - | 0 W/m² | - |
| 1777899609 | 15.56° C | 72% | 1012.2 hPa | 0 mm | - | 0 W/m² | - |
| 1777899307 | 15° C | 74% | 1012.1 hPa | 0 mm | - | 0 W/m² | - |
| 1777899006 | 15° C | 75% | 1012 hPa | 0 mm | - | 0 W/m² | - |
| 1777898706 | 14.44° C | 78% | 1012.1 hPa | 0 mm | - | 0 W/m² | - |
| 1777898407 | 13.33° C | 81% | 1012.2 hPa | 0 mm | - | 0 W/m² | - |
| 1777898107 | 12.22° C | 84% | 1012.1 hPa | 0 mm | - | 0 W/m² | - |
* Rain latest hour (hover to see other rain measurements)
** Current wind speed in m/s (hover to see current wind gust speed)